When you browse on this site, cookies collect data to enhance your experience and personalize the content and advertising you see.
Visit our Privacy Policy to learn more. By continuing to use the site, you agree to this use of cookies and data.

Hourly Weather Saidpur

Today, 14 July, Tuesday

Time Temperature Precipitation Wind Pressure Humidity
00:00 +31°C° 0 mm 3 mps 748 mmHg 80%
01:00 +31°C° 0.9 mm 2 mps 747 mmHg 82%
02:00 +30°C° 0.9 mm 2 mps 747 mmHg 84%
03:00 +30°C° 0.9 mm 2 mps 746 mmHg 85%
04:00 +30°C° 0.7 mm 2 mps 747 mmHg 86%
05:00 +30°C° 0.7 mm 2 mps 747 mmHg 86%
06:00 +30°C° 0.7 mm 2 mps 747 mmHg 86%
07:00 +31°C° 1.4 mm 2 mps 747 mmHg 81%
08:00 +33°C° 1.4 mm 3 mps 748 mmHg 75%
09:00 +34°C° 1.4 mm 3 mps 748 mmHg 69%
10:00 +35°C° 1.7 mm 3 mps 748 mmHg 67%
11:00 +36°C° 1.7 mm 4 mps 748 mmHg 64%
12:00 +37°C° 1.7 mm 4 mps 748 mmHg 62%
13:00 +36°C° 3.4 mm 4 mps 747 mmHg 65%
14:00 +35°C° 3.4 mm 4 mps 747 mmHg 68%
15:00 +35°C° 3.4 mm 4 mps 746 mmHg 71%
16:00 +34°C° 1.6 mm 4 mps 746 mmHg 75%
17:00 +33°C° 1.6 mm 3 mps 747 mmHg 78%
18:00 +31°C° 1.6 mm 3 mps 747 mmHg 82%
19:00 +31°C° 3.4 mm 3 mps 747 mmHg 84%
20:00 +30°C° 3.4 mm 4 mps 748 mmHg 86%
21:00 +30°C° 3.4 mm 4 mps 748 mmHg 88%
22:00 +30°C° 3.3 mm 4 mps 749 mmHg 88%
23:00 +30°C° 3.3 mm 4 mps 749 mmHg 89%

Tomorrow, 15 July, Wednesday

Time Temperature Precipitation Wind Pressure Humidity
00:00 +30°C° 3.3 mm 4 mps 749 mmHg 89%
01:00 +29°C° 3.1 mm 4 mps 748 mmHg 90%
02:00 +29°C° 3.1 mm 3 mps 748 mmHg 90%
03:00 +29°C° 3.1 mm 3 mps 748 mmHg 91%
04:00 +29°C° 0.6 mm 3 mps 748 mmHg 91%
05:00 +29°C° 0.6 mm 3 mps 748 mmHg 90%
06:00 +29°C° 0.6 mm 3 mps 748 mmHg 90%
07:00 +29°C° 0.3 mm 3 mps 749 mmHg 89%
08:00 +29°C° 0.3 mm 3 mps 749 mmHg 88%
09:00 +29°C° 0.3 mm 3 mps 750 mmHg 88%
10:00 +30°C° 0.7 mm 3 mps 750 mmHg 84%
11:00 +32°C° 0.7 mm 4 mps 750 mmHg 79%
12:00 +33°C° 0.7 mm 4 mps 749 mmHg 75%
13:00 +34°C° 1.6 mm 4 mps 749 mmHg 73%
14:00 +34°C° 1.6 mm 4 mps 748 mmHg 72%
15:00 +35°C° 1.6 mm 4 mps 747 mmHg 70%
16:00 +34°C° 0.5 mm 4 mps 747 mmHg 71%
17:00 +34°C° 0.5 mm 4 mps 747 mmHg 72%
18:00 +34°C° 0.5 mm 4 mps 746 mmHg 73%
19:00 +33°C° 0.7 mm 4 mps 747 mmHg 77%
20:00 +32°C° 0.7 mm 4 mps 747 mmHg 80%
21:00 +32°C° 0.7 mm 4 mps 748 mmHg 84%
22:00 +30°C° 1.8 mm 3 mps 748 mmHg 84%
23:00 +30°C° 1.8 mm 3 mps 748 mmHg 85%

Day after tomorrow, 16 July, Thursday

Time Temperature Precipitation Wind Pressure Humidity
00:00 +30°C° 1.8 mm 3 mps 749 mmHg 86%
01:00 +30°C° 1.8 mm 3 mps 748 mmHg 87%
02:00 +30°C° 1.8 mm 4 mps 748 mmHg 87%
03:00 +29°C° 1.8 mm 4 mps 748 mmHg 88%
04:00 +29°C° 1.1 mm 4 mps 748 mmHg 88%
05:00 +29°C° 1.1 mm 4 mps 748 mmHg 89%
06:00 +29°C° 1.1 mm 4 mps 748 mmHg 89%
07:00 +30°C° 0.1 mm 4 mps 748 mmHg 83%
08:00 +32°C° 0.1 mm 4 mps 748 mmHg 78%
09:00 +33°C° 0.1 mm 4 mps 748 mmHg 72%
10:00 +34°C° 0.1 mm 4 mps 748 mmHg 67%
11:00 +36°C° 0.1 mm 4 mps 748 mmHg 63%
12:00 +37°C° 0.1 mm 4 mps 748 mmHg 59%
13:00 +37°C° 0.6 mm 4 mps 747 mmHg 59%
14:00 +37°C° 0.6 mm 4 mps 746 mmHg 59%
15:00 +37°C° 0.6 mm 4 mps 746 mmHg 60%
16:00 +36°C° 1.2 mm 4 mps 746 mmHg 62%
17:00 +36°C° 1.2 mm 4 mps 746 mmHg 65%
18:00 +35°C° 1.2 mm 3 mps 745 mmHg 67%
19:00 +35°C° 0.5 mm 3 mps 746 mmHg 70%
20:00 +34°C° 0.5 mm 3 mps 747 mmHg 74%
21:00 +33°C° 0.5 mm 3 mps 747 mmHg 78%
22:00 +32°C° 0.7 mm 4 mps 747 mmHg 79%
23:00 +32°C° 0.7 mm 4 mps 748 mmHg 80%

17 July, Friday

Time Temperature Precipitation Wind Pressure Humidity
00:00 +32°C° 0.7 mm 4 mps 748 mmHg 82%
01:00 +30°C° 0.2 mm 4 mps 748 mmHg 83%
02:00 +30°C° 0.2 mm 3 mps 747 mmHg 84%
03:00 +30°C° 0.2 mm 3 mps 747 mmHg 85%
04:00 +29°C° 0 mm 3 mps 747 mmHg 86%
05:00 +29°C° 0 mm 3 mps 747 mmHg 87%
06:00 +29°C° 0 mm 2 mps 748 mmHg 88%
07:00 +30°C° 0.1 mm 3 mps 748 mmHg 84%
08:00 +31°C° 0.1 mm 3 mps 748 mmHg 79%
09:00 +33°C° 0.1 mm 3 mps 749 mmHg 75%
10:00 +34°C° 0.3 mm 3 mps 748 mmHg 71%
11:00 +35°C° 0.3 mm 3 mps 748 mmHg 67%
12:00 +36°C° 0.3 mm 3 mps 748 mmHg 63%
13:00 +36°C° 0.6 mm 3 mps 747 mmHg 61%
14:00 +36°C° 0.6 mm 3 mps 747 mmHg 60%
15:00 +37°C° 0.6 mm 3 mps 746 mmHg 58%
16:00 +37°C° 0.4 mm 3 mps 746 mmHg 60%
17:00 +36°C° 0.4 mm 3 mps 746 mmHg 62%
18:00 +36°C° 0.4 mm 3 mps 746 mmHg 63%
19:00 +35°C° 0.7 mm 3 mps 746 mmHg 68%
20:00 +34°C° 0.7 mm 3 mps 747 mmHg 73%
21:00 +33°C° 0.7 mm 4 mps 748 mmHg 77%
22:00 +33°C° 1 mm 4 mps 748 mmHg 79%
23:00 +32°C° 1 mm 4 mps 748 mmHg 80%

18 July, Saturday

Time Temperature Precipitation Wind Pressure Humidity
00:00 +32°C° 1 mm 4 mps 748 mmHg 81%
01:00 +32°C° 1.3 mm 4 mps 748 mmHg 82%
02:00 +30°C° 1.3 mm 4 mps 748 mmHg 84%
03:00 +30°C° 1.3 mm 4 mps 748 mmHg 85%
04:00 +30°C° 0.1 mm 4 mps 748 mmHg 86%
05:00 +30°C° 0.1 mm 3 mps 748 mmHg 87%
06:00 +29°C° 0.1 mm 3 mps 748 mmHg 89%
07:00 +30°C° 0.1 mm 3 mps 748 mmHg 84%
08:00 +31°C° 0.1 mm 3 mps 749 mmHg 79%
09:00 +33°C° 0.1 mm 3 mps 749 mmHg 74%
10:00 +34°C° 0.8 mm 3 mps 749 mmHg 70%
11:00 +35°C° 0.8 mm 3 mps 749 mmHg 67%
12:00 +35°C° 0.8 mm 2 mps 749 mmHg 64%
13:00 +35°C° 1.5 mm 2 mps 748 mmHg 64%
14:00 +35°C° 1.5 mm 2 mps 748 mmHg 65%
15:00 +35°C° 1.5 mm 2 mps 747 mmHg 65%
16:00 +35°C° 0.7 mm 3 mps 747 mmHg 68%
17:00 +34°C° 0.7 mm 3 mps 746 mmHg 70%
18:00 +34°C° 0.7 mm 3 mps 746 mmHg 72%
19:00 +33°C° 0.3 mm 3 mps 746 mmHg 76%
20:00 +33°C° 0.3 mm 3 mps 747 mmHg 79%
21:00 +31°C° 0.3 mm 2 mps 748 mmHg 82%
22:00 +31°C° 0.2 mm 3 mps 748 mmHg 82%
23:00 +31°C° 0.2 mm 3 mps 748 mmHg 83%

19 July, Sunday

Time Temperature Precipitation Wind Pressure Humidity
00:00 +31°C° 0.2 mm 3 mps 748 mmHg 83%
01:00 +30°C° 0.8 mm 3 mps 747 mmHg 84%
02:00 +30°C° 0.8 mm 3 mps 747 mmHg 86%
03:00 +30°C° 0.8 mm 4 mps 747 mmHg 87%
04:00 +29°C° 1.3 mm 4 mps 747 mmHg 87%
05:00 +29°C° 1.3 mm 3 mps 747 mmHg 88%
06:00 +29°C° 1.3 mm 3 mps 747 mmHg 88%
07:00 +29°C° 0.7 mm 3 mps 747 mmHg 88%
08:00 +30°C° 0.7 mm 3 mps 747 mmHg 87%
09:00 +30°C° 0.7 mm 2 mps 747 mmHg 86%
10:00 +30°C° 0.5 mm 2 mps 747 mmHg 84%
11:00 +31°C° 0.5 mm 2 mps 746 mmHg 82%
12:00 +31°C° 0.5 mm 1 mps 746 mmHg 81%
13:00 +31°C° 0.9 mm 2 mps 746 mmHg 82%
14:00 +31°C° 0.9 mm 3 mps 745 mmHg 83%
15:00 +30°C° 0.9 mm 4 mps 745 mmHg 84%
16:00 +30°C° 0 mm 4 mps 745 mmHg 85%
17:00 +29°C° 0 mm 4 mps 744 mmHg 87%
18:00 +28°C° 0 mm 4 mps 744 mmHg 88%
19:00 +28°C° 0.9 mm 4 mps 745 mmHg 89%
20:00 +28°C° 0.9 mm 4 mps 745 mmHg 90%
21:00 +28°C° 0.9 mm 3 mps 746 mmHg 91%
22:00 +28°C° 1 mm 3 mps 746 mmHg 91%
23:00 +28°C° 1 mm 3 mps 746 mmHg 92%
Show more